Location: Beekmeers
(50.8953°N, 3.6968°E)
Time: 13:37:45
(UTC+00:00)

Cosmos 1908 - Pass Details

Date: 23 May 2024
Orbit: 466 x 481 km, 82.5° (Epoch: 16 June)

Event Time Altitude Azimuth Distance (km) Brightness Sun altitude
Rises 00:11:40 0° 340° (NNW) 2,518 7.8 -18.2°
Reaches altitude 10° 00:13:55 10° 330° (NNW) 1,635 6.5 -18.1°
Maximum altitude 00:17:02 29° 269° (W) 889 4.3 -18.1°
Enters shadow 00:17:34 28° 252° (WSW) 917 4.2 -18.0°
